Location: Brompton
(51.4000°N, 0.5333°E)
Time: 15:34:12
(UTC+00:00)

USA 215 - Visible Passes

Search period start: 25 September 2021 00:00
Search period end: 05 October 2021 00:00
Orbit: 1100 x 1107 km, 123.0° (Epoch: 23 September)

Date Brightness Start Highest point End Pass type
(mag) Time Alt. Az. Time Alt. Az. Time Alt. Az.
25 Sep 3.4 19:08:32 14° SE 19:14:16 76° SSW 19:20:53 10° WNW visible
25 Sep 4.6 20:55:54 24° SSW 20:57:59 28° SW 21:03:31 10° WNW visible
26 Sep 3.4 18:24:56 10° ESE 18:31:30 78° NNE 18:38:05 10° WNW visible
26 Sep 3.9 20:11:35 28° SSE 20:14:48 48° SW 20:21:08 10° WNW visible
26 Sep 5.3 21:58:57 14° WSW 21:58:58 14° WSW 22:02:17 10° W visible
27 Sep 3.3 19:27:17 22° SE 19:31:50 76° SW 19:38:26 10° WNW visible
27 Sep 4.5 21:14:38 27° SW 21:15:33 28° SW 21:21:03 10° WNW visible
28 Sep 3.3 18:42:56 12° ESE 18:49:02 78° NNE 18:55:38 10° WNW visible
28 Sep 3.8 20:30:18 37° S 20:32:21 48° SW 20:38:41 10° WNW visible
28 Sep 5.4 22:17:39 14° WSW 22:17:39 14° WSW 22:19:49 10° W visible
29 Sep 3.5 17:59:57 10° E 18:06:24 62° NNE 18:12:53 10° WNW visible
29 Sep 3.3 19:45:56 31° SE 19:49:22 75° SSW 19:55:59 10° WNW visible
29 Sep 4.5 21:33:18 28° SW 21:33:18 28° SW 21:38:36 10° WNW visible
30 Sep 3.3 19:01:34 19° ESE 19:06:36 78° NNE 19:13:11 10° WNW visible
30 Sep 3.7 20:48:56 45° SSW 20:49:54 48° SW 20:56:14 10° WNW visible
30 Sep 5.5 22:36:17 12° W 22:36:17 12° W 22:37:20 10° W visible
01 Oct 3.5 18:17:30 10° E 18:23:58 62° NNE 18:30:26 10° WNW visible
01 Oct 3.3 20:04:33 43° SE 20:06:56 75° SW 20:13:31 10° WNW visible
01 Oct 4.7 21:51:54 26° WSW 21:51:54 26° WSW 21:56:08 10° WNW visible
02 Oct 3.3 19:20:09 26° ESE 19:24:08 79° NNE 19:30:44 10° WNW visible
02 Oct 3.7 21:07:31 47° SW 21:07:31 47° SW 21:13:47 10° WNW visible
03 Oct 3.5 18:35:45 14° E 18:41:31 62° NNE 18:47:59 10° WNW visible
03 Oct 3.2 20:23:06 57° SSE 20:24:28 75° SSW 20:31:05 10° WNW visible
03 Oct 4.9 22:10:28 23° W 22:10:28 23° W 22:13:40 10° WNW visible
04 Oct 3.7 17:52:36 10° E 17:58:58 56° N 18:05:21 10° WNW visible
04 Oct 3.2 19:38:42 36° ESE 19:41:42 79° NNE 19:48:17 10° WNW visible
04 Oct 4.0 21:26:03 44° WSW 21:26:03 44° WSW 21:31:20 10° WNW visible
